Location: Unspecified
(42.9300°N, 71.1866°W)
Time: 17:23:58
(UTC-04:00)

CZ-3 Stage 3 - Visible Passes

Search period start: 27 August 2015 00:00
Search period end: 06 September 2015 00:00
Orbit: 439 x 34786 km, 31.0° (Epoch: 25 August)

Date Brightness Start Highest point End Pass type
(mag) Time Alt. Az. Time Alt. Az. Time Alt. Az.
28 Aug 7.0 04:30:57 12° W 05:45:03 71° S 13:20:11 10° SW visible
29 Aug 6.2 01:03:49 51° S 01:09:14 55° SE 09:58:12 10° SSE visible
31 Aug 7.0 04:26:00 13° W 05:41:34 70° SSW 13:10:59 10° SW visible
01 Sep 6.2 00:58:52 53° S 01:03:43 56° SE 09:52:09 10° SSE visible
03 Sep 7.1 04:21:05 14° W 05:38:12 70° SSW 13:01:20 10° SW visible
04 Sep 6.2 00:53:59 55° S 00:58:14 57° SSE 09:46:03 10° SSE visible
